Emporia, Virginia, United States (23847)
Lat: 36.69N, Lon: 77.54W
Wx Zone: VAZ087
Local Info
Past Weather Observations for Saturday, May 28, 2016

NOTE: This archive is for the closest National Weather Service station to Emporia. Information may differ from the station used for current weather conditions.

Click here for Long-term Archive

Time Weather Temperature Dewpoint Humidity Pressure Winds Precip Visibility
23:50
Fair
64°F / 18°C 63°F / 17°C 94% 30.18 in
(1022 mb)
Calm -
23:35
Fair
64°F / 18°C 63°F / 17°C 94% 30.15 in
(1021 mb)
Calm -
23:15
Fair
64°F / 18°C 63°F / 17°C 94% 30.15 in
(1021 mb)
Calm -
22:55
Fair
64°F / 18°C 63°F / 17°C 94% 30.15 in
(1021 mb)
Calm -
22:35
Clear
68°F / 20°C 63°F / 17°C 83% 30.18 in
(1022 mb)
Calm -
22:15
Clear
70°F / 21°C 63°F / 17°C 78% 30.18 in
(1022 mb)
Calm -
21:55
Clear
70°F / 21°C 63°F / 17°C 78% 30.15 in
(1021 mb)
E 4.6 mph
(E 7 kph)
-
21:35
Clear
70°F / 21°C 63°F / 17°C 78% 30.18 in
(1022 mb)
E 4.6 mph
(E 7 kph)
-
21:15
Clear
70°F / 21°C 64°F / 18°C 83% 30.15 in
(1021 mb)
E 4.6 mph
(E 7 kph)
-
20:55
Clear
70°F / 21°C 64°F / 18°C 83% 30.15 in
(1021 mb)
E 4.6 mph
(E 7 kph)
-
20:35
Clear
72°F / 22°C 63°F / 17°C 73% 30.15 in
(1021 mb)
E 4.6 mph
(E 7 kph)
-
20:15
Clear
72°F / 22°C 63°F / 17°C 73% 30.15 in
(1021 mb)
E 3.5 mph
(E 6 kph)
-
19:55
Clear
72°F / 22°C 63°F / 17°C 73% 30.15 in
(1021 mb)
Calm -
19:35
Clear
72°F / 22°C 63°F / 17°C 73% 30.15 in
(1021 mb)
Calm -
19:15
Clear
73°F / 23°C 66°F / 19°C 78% 30.15 in
(1021 mb)
Calm -
18:55
Clear
79°F / 26°C 63°F / 17°C 58% 30.15 in
(1021 mb)
E 3.5 mph
(E 6 kph)
-
18:35
Clear
81°F / 27°C 61°F / 16°C 51% 30.15 in
(1021 mb)
E 3.5 mph
(E 6 kph)
-
18:15
Clear
81°F / 27°C 61°F / 16°C 51% 30.15 in
(1021 mb)
E 3.5 mph
(E 6 kph)
-
17:55
Clear
82°F / 28°C 61°F / 16°C 48% 30.12 in
(1020 mb)
Calm -
17:35
Clear
84°F / 29°C 59°F / 15°C 43% 30.12 in
(1020 mb)
E 3.5 mph
(E 6 kph)
-
17:15
Clear
84°F / 29°C 59°F / 15°C 43% 30.12 in
(1020 mb)
Calm -
16:55
Clear
84°F / 29°C 57°F / 14°C 40% 30.12 in
(1020 mb)
E 3.5 mph
(E 6 kph)
-
16:35
Clear
86°F / 30°C 57°F / 14°C 38% 30.12 in
(1020 mb)
E 5.8 mph
(E 9 kph)
-
16:15
Clear
86°F / 30°C 59°F / 15°C 40% 30.15 in
(1021 mb)
E 4.6 mph
(E 7 kph)
-
15:55
Clear
84°F / 29°C 59°F / 15°C 43% 30.15 in
(1021 mb)
SE 5.8 mph
(SE 9 kph)
-
15:35
Clear
84°F / 29°C 59°F / 15°C 43% 30.15 in
(1021 mb)
E 9.2 mph
(E 15 kph)
-
15:15
Clear
86°F / 30°C 59°F / 15°C 40% 30.15 in
(1021 mb)
E 5.8 mph
(E 9 kph)
-
14:55
Clear
86°F / 30°C 59°F / 15°C 40% 30.15 in
(1021 mb)
SE 10.4 mph
(SE 17 kph)
-
14:35
Clear
84°F / 29°C 59°F / 15°C 43% 30.18 in
(1022 mb)
E 6.9 mph
(E 11 kph)
-
14:15
Clear
82°F / 28°C 59°F / 15°C 45% 30.18 in
(1022 mb)
E 8.1 mph
(E 13 kph)
-
13:55
Clear
82°F / 28°C 59°F / 15°C 45% 30.18 in
(1022 mb)
ENE 5.8 mph
(ENE 9 kph)
-
13:35
Clear
82°F / 28°C 55°F / 13°C 40% 30.18 in
(1022 mb)
Calm -
13:15
Clear
82°F / 28°C 55°F / 13°C 40% 30.18 in
(1022 mb)
Calm -
12:55
Clear
82°F / 28°C 57°F / 14°C 42% 30.21 in
(1023 mb)
E 6.9 mph
(E 11 kph)
-
12:35
Clear
81°F / 27°C 59°F / 15°C 48% 30.21 in
(1023 mb)
SE 3.5 mph
(SE 6 kph)
-
12:15
Clear
81°F / 27°C 59°F / 15°C 48% 30.21 in
(1023 mb)
Calm -
11:55
Clear
81°F / 27°C 59°F / 15°C 48% 30.21 in
(1023 mb)
SE 3.5 mph
(SE 6 kph)
-
11:35
Clear
81°F / 27°C 59°F / 15°C 48% 30.21 in
(1023 mb)
E 3.5 mph
(E 6 kph)
-
11:15
Clear
79°F / 26°C 59°F / 15°C 51% 30.21 in
(1023 mb)
Calm -
10:55
Clear
79°F / 26°C 61°F / 16°C 54% 30.21 in
(1023 mb)
SE 4.6 mph
(SE 7 kph)
-
10:35
Clear
79°F / 26°C 61°F / 16°C 54% 30.21 in
(1023 mb)
E 4.6 mph
(E 7 kph)
-
10:15
Clear
77°F / 25°C 59°F / 15°C 54% 30.21 in
(1023 mb)
E 4.6 mph
(E 7 kph)
-
09:55
Clear
77°F / 25°C 59°F / 15°C 54% 30.21 in
(1023 mb)
Calm -
09:35
Clear
77°F / 25°C 61°F / 16°C 57% 30.21 in
(1023 mb)
Calm -
09:15
Clear
75°F / 24°C 61°F / 16°C 61% 30.21 in
(1023 mb)
SSE 3.5 mph
(SSE 6 kph)
-
08:55
Clear
73°F / 23°C 61°F / 16°C 65% 30.21 in
(1023 mb)
Calm -
08:35
Clear
73°F / 23°C 63°F / 17°C 69% 30.21 in
(1023 mb)
Calm -
08:15
Clear
72°F / 22°C 63°F / 17°C 73% 30.21 in
(1023 mb)
SSE 3.5 mph
(SSE 6 kph)
-
07:55
Clear
70°F / 21°C 63°F / 17°C 78% 30.21 in
(1023 mb)
S 3.5 mph
(S 6 kph)
-
07:35
Clear
70°F / 21°C 63°F / 17°C 78% 30.21 in
(1023 mb)
S 3.5 mph
(S 6 kph)
- 10SM
07:15
Clear
68°F / 20°C 63°F / 17°C 83% 30.21 in
(1023 mb)
Calm - 10SM
06:55
Fair
66°F / 19°C 63°F / 17°C 88% 30.21 in
(1023 mb)
Calm -
06:35
Fair
64°F / 18°C 61°F / 16°C 88% 30.21 in
(1023 mb)
SE 3.5 mph
(SE 6 kph)
-
06:15
Fair
63°F / 17°C 61°F / 16°C 94% 30.21 in
(1023 mb)
Calm -
05:55
Fair
59°F / 15°C 59°F / 15°C 100% 30.18 in
(1022 mb)
Calm -
05:35
Fair
57°F / 14°C 57°F / 14°C 100% 30.18 in
(1022 mb)
Calm -
05:15
Fair
55°F / 13°C 55°F / 13°C 100% 30.18 in
(1022 mb)
Calm -
04:55
Fair
55°F / 13°C 55°F / 13°C 100% 30.18 in
(1022 mb)
Calm -
04:35
Fair
54°F / 12°C 54°F / 12°C 100% 30.18 in
(1022 mb)
Calm -
04:15
Fair
54°F / 12°C 54°F / 12°C 100% 30.18 in
(1022 mb)
Calm -
03:55
Fair
54°F / 12°C 54°F / 12°C 100% 30.18 in
(1022 mb)
Calm -
03:35
Fair
55°F / 13°C 55°F / 13°C 100% 30.18 in
(1022 mb)
Calm -
03:15
Fair
59°F / 15°C 59°F / 15°C 100% 30.18 in
(1022 mb)
Calm -
02:55
Clear
59°F / 15°C 57°F / 14°C 94% 30.18 in
(1022 mb)
Calm - 10SM
02:35
Fair
61°F / 16°C 59°F / 15°C 94% 30.15 in
(1021 mb)
Calm -
02:15
Fair
61°F / 16°C 59°F / 15°C 94% 30.15 in
(1021 mb)
Calm -
01:55
Fair
61°F / 16°C 59°F / 15°C 94% 30.15 in
(1021 mb)
Calm -
01:35
Fair
61°F / 16°C 59°F / 15°C 94% 30.15 in
(1021 mb)
Calm -
01:15
Fair
61°F / 16°C 61°F / 16°C 100% 30.15 in
(1021 mb)
Calm -
00:55
Fair
61°F / 16°C 61°F / 16°C 100% 30.18 in
(1022 mb)
Calm -
00:35
Fair
61°F / 16°C 59°F / 15°C 94% 30.18 in
(1022 mb)
Calm -
00:15
Clear
64°F / 18°C 61°F / 16°C 88% 30.18 in
(1022 mb)
Calm -
Time Weather Temperature Dewpoint Humidity Pressure Winds Precip Visibility


Weather for websites

WeatherForYou.com, LLC is not responsible for any damages or problems caused by this service. Current weather conditions are obtained from the closest station including government and personal stations which may have varying degrees of accuracy. Weather forecasts are derived from the NOAA NDFD. Like all things, this site belongs to Jesus Christ... He just trusts us to maintain it. If you have any questions or comments email webmaster@weatherforyou.com

Copyright © 2016, WeatherForYou.com LLC. All rights reserved.